Home   Weather   Bietigheim-Bissingen   Past weeks

Flag for Germany Past Weather in Bietigheim-Bissingen, Baden-Württemberg, Germany — Yesterday and Last 2 Weeks

Now
32 °F

Overcast.


Feels Like: 27 °F
Forecast: 22 / 36 °F
Wind: 5 mph from Southeast

Location: Stuttgart-Echterdingen

Current Time: Dec 4, 2016 at 7:27:46 pm

Latest Report: Dec 4, 2016 at 6:50 pm


Visibility: N/A

Pressure: 30.30 "Hg

Humidity: 87%

Dew Point: 28 °F

Location of Bietigheim-BissingenLocation

Past Weather in Bietigheim-Bissingen — Graph

°F

Bietigheim-Bissingen Temperature Yesterday

Maximum temperature yesterday: 41 °F (at 2:20 pm)
Minimum temperature yesterday: 27 °F (at 8:50 pm)
Average temperature yesterday: 34 °F

High & Low Weather Summary for the Past Weeks

 TemperatureHumidityPressure
High61 °F (Nov 20, 1:50 pm)100% (Nov 20, 12:50 am)30.51 "Hg (Nov 20, 12:50 am)
Low19 °F (Nov 30, 5:20 am)31% (Dec 1, 1:50 pm)29.59 "Hg (Nov 21, 12:20 pm)
Average39 °F83%30.09 "Hg
* Reported Nov 19 6:20 pm — Dec 4 6:20 pm, Bietigheim-Bissingen, Weather by CustomWeather, © 2016

Note: Actual official high and low records may vary slightly from our data, if they occured in-between our weather recording intervals... More about our weather records

Advertising

Bietigheim-Bissingen Weather History for the Previous 24 Hours

Scroll right to see more
 ConditionsComfort  
Time TempWeatherWind HumidityBarometerVisibility
6:20 pm
Sun, Dec 4
32 °FPassing clouds.3 mph87%30.30 "HgN/A
5:50 pm32 °FPassing clouds.6 mph87%30.30 "HgN/A
5:20 pm32 °FPassing clouds.5 mph87%30.30 "HgN/A
4:50 pm32 °FPassing clouds.6 mph87%30.27 "HgN/A
4:20 pm32 °FPartly sunny.6 mph87%30.27 "HgN/A
3:50 pm32 °FPartly sunny.7 mph87%30.27 "HgN/A
3:20 pm32 °FPartly sunny.8 mph87%30.27 "HgN/A
2:50 pm32 °FPartly sunny.7 mph87%30.27 "HgN/A
2:20 pm34 °FPartly sunny.7 mph81%30.27 "HgN/A
1:50 pm32 °FPartly sunny.3 mph87%30.27 "HgN/A
1:20 pm32 °FPartly sunny.3 mph87%30.27 "HgN/A
12:50 pm32 °FPartly sunny.3 mph87%30.27 "HgN/A
12:20 pm30 °FPartly sunny.No wind93%30.27 "HgN/A
11:50 am30 °FPartly sunny.2 mph86%30.30 "HgN/A
11:20 am28 °FPartly sunny.1 mph93%30.30 "HgN/A
10:50 am28 °FPartly sunny.2 mph86%30.30 "HgN/A
10:20 am27 °FPartly sunny.1 mph93%30.30 "HgN/A
9:50 am27 °FPartly sunny.1 mph93%30.30 "HgN/A
9:20 am25 °FPartly sunny.1 mph93%30.30 "HgN/A
8:50 am23 °FPartly sunny.2 mph100%30.27 "HgN/A
8:20 am21 °FPartly sunny.1 mph100%30.27 "HgN/A
7:50 am21 °FPassing clouds.2 mph93%30.27 "HgN/A
7:20 am21 °FPassing clouds.2 mph93%30.27 "HgN/A
6:50 am21 °FClear.2 mph93%30.27 "Hg10 mi
6:20 am23 °FClear.1 mph93%30.24 "Hg10 mi
5:50 am21 °FClear.No wind100%30.24 "Hg10 mi
5:20 am19 °FClear.No wind86%30.24 "Hg10 mi
4:50 am21 °FClear.No wind93%30.24 "Hg10 mi
4:20 am19 °FClear.2 mph93%30.27 "Hg10 mi
3:50 am21 °FClear.2 mph93%30.24 "Hg10 mi
3:20 am21 °FClear.1 mph93%30.24 "Hg10 mi
2:50 am21 °FClear.1 mph86%30.24 "Hg10 mi
2:20 am21 °FClear.3 mph86%30.27 "Hg10 mi
1:50 am23 °FClear.No wind86%30.24 "Hg10 mi
1:20 am25 °FClear.No wind86%30.24 "Hg10 mi
12:50 am27 °FClear.1 mph86%30.24 "Hg10 mi
12:20 am27 °FClear.1 mph86%30.24 "Hg10 mi
11:50 pm
Sat, Dec 3
27 °FClear.2 mph86%30.24 "Hg10 mi
11:20 pm27 °FClear.5 mph86%30.24 "Hg10 mi
10:50 pm27 °FClear.7 mph86%30.24 "Hg10 mi
10:20 pm27 °FClear.8 mph86%30.24 "Hg10 mi
9:50 pm28 °FClear.9 mph80%30.24 "Hg10 mi
9:20 pm28 °FClear.9 mph80%30.24 "Hg10 mi
8:50 pm27 °FClear.10 mph80%30.21 "Hg10 mi
8:20 pm30 °FClear.8 mph69%30.21 "Hg10 mi
7:50 pm30 °FClear.6 mph75%30.21 "Hg10 mi
7:20 pm32 °FClear.5 mph69%30.21 "Hg10 mi
Weather by CustomWeather, © 2016

See weather overviewHow to use our weather pages